TimeCST,TemperatureF,Dew PointF,Humidity,Sea Level PressureIn,VisibilityMPH,Wind Direction,Wind SpeedMPH,Gust SpeedMPH,PrecipitationIn,Events,Conditions,WindDirDegrees,DateUTC
12:40 AM,78.8,75.2,89,29.92,10.0,Calm,Calm,-,N/A,,Scattered Clouds,0,2012-11-15 06:40:00
1:40 AM,78.8,75.2,89,29.92,10.0,Calm,Calm,-,N/A,,Scattered Clouds,0,2012-11-15 07:40:00
2:40 AM,77.0,75.2,94,29.90,10.0,Calm,Calm,-,N/A,,Scattered Clouds,0,2012-11-15 08:40:00
3:40 AM,77.0,75.2,94,29.92,10.0,Calm,Calm,-,N/A,,Scattered Clouds,0,2012-11-15 09:40:00
4:40 AM,77.0,75.2,94,29.92,10.0,Calm,Calm,-,N/A,,Scattered Clouds,0,2012-11-15 10:40:00
4:52 AM,77.0,75.2,94,29.92,10.0,Calm,Calm,-,N/A,,Scattered Clouds,0,2012-11-15 10:52:00
4:55 AM,77.0,75.2,94,29.92,10.0,Calm,Calm,-,N/A,,Scattered Clouds,0,2012-11-15 10:55:00
5:48 AM,77.0,73.4,89,29.83,10.0,Calm,Calm,-,N/A,,Scattered Clouds,0,2012-11-15 11:48:00
6:50 AM,77.0,71.6,83,29.92,10.0,NNE,9.2,-,N/A,,Scattered Clouds,20,2012-11-15 12:50:00
7:40 AM,78.8,73.4,83,29.94,10.0,NE,5.8,-,N/A,,Scattered Clouds,40,2012-11-15 13:40:00
8:40 AM,82.4,75.2,79,29.91,10.0,Calm,Calm,-,N/A,,Scattered Clouds,0,2012-11-15 14:40:00
9:40 AM,86.0,75.2,70,29.98,10.0,Calm,Calm,-,N/A,,Mostly Cloudy,0,2012-11-15 15:40:00
10:40 AM,87.8,75.2,66,29.97,10.0,Calm,Calm,-,N/A,,Mostly Cloudy,0,2012-11-15 16:40:00
11:40 AM,87.8,75.2,66,30.19,10.0,SW,5.8,-,N/A,,Mostly Cloudy,230,2012-11-15 17:40:00
12:42 PM,87.8,75.2,66,29.93,10.0,WSW,5.8,-,N/A,,Mostly Cloudy,240,2012-11-15 18:42:00
1:40 PM,86.0,75.2,70,29.91,10.0,WSW,11.5,-,N/A,,Mostly Cloudy,240,2012-11-15 19:40:00
2:40 PM,86.0,73.4,66,29.85,10.0,WSW,11.5,-,N/A,,Mostly Cloudy,240,2012-11-15 20:40:00
3:40 PM,84.2,75.2,74,29.88,10.0,WSW,13.8,-,N/A,,Mostly Cloudy,240,2012-11-15 21:40:00
4:40 PM,86.0,77.0,74,29.88,10.0,West,11.5,-,N/A,,Mostly Cloudy,270,2012-11-15 22:40:00
5:40 PM,84.2,75.2,74,29.83,10.0,Calm,Calm,-,N/A,,Mostly Cloudy,0,2012-11-15 23:40:00
6:40 PM,80.6,75.2,84,29.91,10.0,Calm,Calm,-,N/A,,Mostly Cloudy,0,2012-11-16 00:40:00
7:40 PM,78.8,73.4,83,29.93,10.0,Calm,Calm,-,N/A,,Mostly Cloudy,0,2012-11-16 01:40:00
8:40 PM,78.8,73.4,83,29.82,10.0,Calm,Calm,-,N/A,,Mostly Cloudy,0,2012-11-16 02:40:00
9:47 PM,77.0,73.4,89,29.96,10.0,Calm,Calm,-,N/A,,Mostly Cloudy,0,2012-11-16 03:47:00
10:40 PM,75.2,71.6,89,29.95,10.0,Calm,Calm,-,N/A,,Mostly Cloudy,0,2012-11-16 04:40:00
11:40 PM,77.0,71.6,83,29.81,10.0,Calm,Calm,-,N/A,,Mostly Cloudy,0,2012-11-16 05:40:00